Mount Werner, CO

11:35 AM MDT on July 27, 2017 (GMT -0600)
Mount Werner

Weather History for K3MW - September, 2013

Change the Weather History Date:

Tuesday, September 10, 2013

  Actual Average (KSBS) Record (KSBS)
Temperature  
Mean Temperature 53 °F -  
Max Temperature 60 °F 75 °F 86 °F (1959)
Min Temperature 46 °F 37 °F 15 °F (1962)
Degree Days  
Heating Degree Days 12    
Growing Degree Days 3 (Base 50)    
Moisture  
Dew Point 44 °F    
Average Humidity 82    
Maximum Humidity 93    
Minimum Humidity 59    
Precipitation  
Precipitation 0.00 in - - ()
Sea Level Pressure  
Sea Level Pressure 30.43 in    
Wind  
Wind Speed 12 mph (East)    
Max Wind Speed 26 mph    
Max Gust Speed 37 mph    
Visibility 6 miles    
Events Thunderstorm    
Averages and records for this station are not official NWS values.
T = Trace of Precipitation, MM = Missing Value Source: NWS Daily Summary

Daily Weather History Graph

Daily Weather History Graph

Search for Another Location

Airport or City:

Trip Planner

Search our weather history database for the weather conditions in past years. The results will help you decide how hot, cold, wet, or windy it might be!

Date:

Astronomy

Sep. 10, 2013 Rise Set
Actual Time 6:43 AM MDT 7:23 PM MDT
Civil Twilight 6:15 AM MDT 7:51 PM MDT
Nautical Twilight 5:43 AM MDT 8:23 PM MDT
Astronomical Twilight 5:09 AM MDT 8:57 PM MDT
Moon 12:13 PM MDT (9/10) 10:28 PM MDT (9/10)
Length of Visible Light 13h 35m
Length of Day
12h 40m
Waxing Crescent, 29% of the Moon is Illuminated
Sep 10
Waxing Crescent
Sep 12
First Quarter
Sep 19
Full
Sep 26
Last Quarter
Oct 4
New

Hourly Weather History & Observations

Time (MDT) Temp. Windchill Dew Point Humidity Pressure Visibility Wind Dir Wind Speed Gust Speed Precip Events Conditions
12:15 AM 48.2 °F - 42.8 °F 82% 30.38 in 10.0 mi East 15.0 mph - N/A   Overcast
12:35 AM 48.2 °F - 42.8 °F 82% 30.38 in 10.0 mi East 13.8 mph - N/A   Overcast
12:55 AM 48.2 °F - 42.8 °F 82% 30.38 in 10.0 mi East 15.0 mph - N/A   Overcast
1:15 AM 48.2 °F - 42.8 °F 82% 30.38 in 10.0 mi East 12.7 mph - N/A   Overcast
1:35 AM 48.2 °F - 42.8 °F 82% 30.39 in 10.0 mi ESE 12.7 mph - N/A   Overcast
1:55 AM 48.2 °F - 42.8 °F 82% 30.39 in 10.0 mi ESE 11.5 mph - N/A   Overcast
2:15 AM 48.2 °F - 42.8 °F 82% 30.39 in 10.0 mi ESE 12.7 mph - N/A   Overcast
2:35 AM 48.2 °F - 44.6 °F 87% 30.39 in 10.0 mi ESE 13.8 mph - N/A   Overcast
2:55 AM 50.0 °F - 44.6 °F 82% 30.39 in 10.0 mi ESE 13.8 mph - N/A   Overcast
3:15 AM 50.0 °F - 42.8 °F 76% 30.39 in 10.0 mi ESE 9.2 mph - N/A   Overcast
3:35 AM 48.2 °F - 44.6 °F 87% 30.40 in 7.0 mi SE 11.5 mph - N/A   Overcast
3:55 AM 48.2 °F - 44.6 °F 87% 30.41 in 0.2 mi SSE 9.2 mph - N/A   Overcast
4:15 AM 46.4 °F 41.1 °F 44.6 °F 93% 30.41 in 0.2 mi South 11.5 mph - N/A   Overcast
4:35 AM 46.4 °F 41.9 °F 42.8 °F 87% 30.41 in 0.2 mi SSW 9.2 mph - N/A   Overcast
4:55 AM 46.4 °F 42.9 °F 42.8 °F 87% 30.42 in 0.2 mi SSW 6.9 mph - N/A   Overcast
5:15 AM 46.4 °F 42.9 °F 42.8 °F 87% 30.41 in 0.2 mi WNW 6.9 mph - N/A   Overcast
5:35 AM 46.4 °F 43.5 °F 42.8 °F 87% 30.40 in 0.2 mi NNW 5.8 mph - N/A   Overcast
5:55 AM 46.4 °F 45.2 °F 42.8 °F 87% 30.39 in 1.2 mi NNE 3.5 mph - N/A   Overcast
6:15 AM 50.0 °F - 41.0 °F 71% 30.39 in 10.0 mi Calm Calm - N/A   Overcast
6:35 AM 50.0 °F - 37.4 °F 62% 30.40 in 10.0 mi North 3.5 mph - N/A   Overcast
6:55 AM 50.0 °F - 37.4 °F 62% 30.41 in 10.0 mi NE 4.6 mph - N/A   Overcast
7:15 AM 48.2 °F - 41.0 °F 76% 30.41 in 10.0 mi ENE 6.9 mph - N/A   Overcast
7:35 AM 48.2 °F - 41.0 °F 76% 30.40 in 10.0 mi ENE 13.8 mph 19.6 mph N/A   Overcast
7:55 AM 46.4 °F 40.1 °F 42.8 °F 87% 30.41 in 5.0 mi ENE 15.0 mph 21.9 mph N/A   Overcast
8:15 AM 46.4 °F 40.4 °F 44.6 °F 93% 30.41 in 0.5 mi ENE 13.8 mph 19.6 mph N/A   Overcast
8:35 AM 48.2 °F - 44.6 °F 87% 30.41 in 0.2 mi ENE 17.3 mph 24.2 mph N/A   Overcast
8:55 AM 48.2 °F - 44.6 °F 87% 30.41 in 0.2 mi ENE 17.3 mph 21.9 mph N/A   Overcast
9:15 AM 48.2 °F - 44.6 °F 87% 30.42 in 1.0 mi ENE 15.0 mph 24.2 mph N/A   Overcast
9:35 AM 48.2 °F - 44.6 °F 87% 30.43 in 2.5 mi ENE 15.0 mph 24.2 mph N/A   Overcast
9:55 AM 50.0 °F - 44.6 °F 82% 30.43 in 10.0 mi East 19.6 mph 25.3 mph N/A   Overcast
10:15 AM 51.8 °F - 44.6 °F 76% 30.43 in 10.0 mi East 17.3 mph 25.3 mph N/A   Mostly Cloudy
10:35 AM 51.8 °F - 42.8 °F 71% 30.43 in 10.0 mi East 19.6 mph 29.9 mph N/A   Scattered Clouds
10:55 AM 53.6 °F - 44.6 °F 72% 30.43 in 10.0 mi East 17.3 mph 26.5 mph N/A   Scattered Clouds
11:15 AM 53.6 °F - 44.6 °F 72% 30.43 in 10.0 mi East 17.3 mph 31.1 mph N/A   Scattered Clouds
11:35 AM 53.6 °F - 44.6 °F 72% 30.44 in 10.0 mi East 18.4 mph 25.3 mph N/A   Scattered Clouds
11:55 AM 53.6 °F - 44.6 °F 72% 30.45 in 10.0 mi East 12.7 mph 21.9 mph N/A   Scattered Clouds
12:15 PM 53.6 °F - 44.6 °F 72% 30.45 in 10.0 mi East 11.5 mph 18.4 mph N/A   Mostly Cloudy
12:35 PM 53.6 °F - 44.6 °F 72% 30.44 in 10.0 mi East 15.0 mph 21.9 mph N/A   Mostly Cloudy
12:55 PM 55.4 °F - 46.4 °F 72% 30.43 in 10.0 mi East 11.5 mph 18.4 mph N/A   Overcast
1:15 PM 57.2 °F - 46.4 °F 67% 30.43 in 10.0 mi East 13.8 mph 21.9 mph N/A   Scattered Clouds
1:35 PM 60.8 °F - 46.4 °F 59% 30.43 in 10.0 mi East 9.2 mph 18.4 mph N/A   Scattered Clouds
1:55 PM 57.2 °F - 44.6 °F 63% 30.43 in 10.0 mi East 15.0 mph 23.0 mph N/A Thunderstorm Scattered Clouds
2:15 PM 57.2 °F - 46.4 °F 67% 30.42 in 10.0 mi East 13.8 mph 21.9 mph N/A Thunderstorm Thunderstorm
2:35 PM 53.6 °F - 48.2 °F 82% 30.43 in 0.2 mi SW 8.1 mph 18.4 mph N/A Thunderstorm Thunderstorm
2:55 PM 51.8 °F - 48.2 °F 88% 30.43 in 0.2 mi West 8.1 mph - N/A Thunderstorm Thunderstorm
3:15 PM 50.0 °F - 46.4 °F 87% 30.43 in 0.2 mi WNW 6.9 mph - N/A   Overcast
3:35 PM 51.8 °F - 46.4 °F 82% 30.43 in 0.2 mi WNW 3.5 mph - N/A Thunderstorm Overcast
3:55 PM 51.8 °F - 46.4 °F 82% 30.43 in 0.5 mi WNW 6.9 mph - N/A Thunderstorm Thunderstorm
4:15 PM 50.0 °F - 46.4 °F 87% 30.43 in 0.2 mi WNW 9.2 mph - N/A Thunderstorm Thunderstorm
4:35 PM 51.8 °F - 46.4 °F 82% 30.44 in 0.2 mi SW 6.9 mph 16.1 mph N/A Thunderstorm Thunderstorm
4:55 PM 50.0 °F - 46.4 °F 87% 30.44 in 0.5 mi Calm Calm - N/A Thunderstorm Overcast
5:15 PM 50.0 °F - 46.4 °F 87% 30.46 in 0.5 mi Calm Calm - N/A Thunderstorm Overcast
5:35 PM 50.0 °F - 46.4 °F 87% 30.47 in 0.2 mi Calm Calm - N/A   Overcast
5:55 PM 50.0 °F - 46.4 °F 87% 30.48 in 0.2 mi SSE 4.6 mph - N/A   Overcast
6:15 PM 50.0 °F - 46.4 °F 87% 30.47 in 3.0 mi NE 5.8 mph - N/A   Overcast
6:35 PM 50.0 °F - 46.4 °F 87% 30.47 in 0.2 mi NE 10.4 mph - N/A   Overcast
6:55 PM 50.0 °F - 46.4 °F 87% 30.46 in 4.0 mi NE 5.8 mph - N/A   Overcast
7:15 PM 50.0 °F - 46.4 °F 87% 30.46 in 0.2 mi ENE 10.4 mph - N/A   Overcast
7:35 PM 50.0 °F - 46.4 °F 87% 30.46 in 0.5 mi NE 13.8 mph 19.6 mph N/A   Overcast
7:55 PM 48.2 °F - 44.6 °F 87% 30.47 in 0.5 mi NE 15.0 mph 20.7 mph N/A   Overcast
8:15 PM 48.2 °F - 44.6 °F 87% 30.47 in 0.2 mi ENE 15.0 mph 20.7 mph N/A   Overcast
8:35 PM 48.2 °F - 44.6 °F 87% 30.48 in 0.8 mi East 16.1 mph 24.2 mph N/A   Overcast
8:55 PM 48.2 °F - 44.6 °F 87% 30.48 in 0.8 mi ENE 16.1 mph 27.6 mph N/A   Overcast
9:15 PM 48.2 °F - 44.6 °F 87% 30.47 in 0.8 mi ENE 19.6 mph 29.9 mph N/A   Overcast
9:35 PM 46.4 °F 39.2 °F 44.6 °F 93% 30.47 in 0.5 mi ENE 18.4 mph 28.8 mph N/A   Overcast
9:55 PM 48.2 °F - 44.6 °F 87% 30.48 in 10.0 mi East 17.3 mph 27.6 mph N/A   Overcast
10:15 PM 48.2 °F - 44.6 °F 87% 30.47 in 10.0 mi East 21.9 mph 27.6 mph N/A   Overcast
10:35 PM 50.0 °F - 44.6 °F 82% 30.47 in 10.0 mi East 21.9 mph 31.1 mph N/A   Overcast
10:55 PM 50.0 °F - 44.6 °F 82% 30.46 in 10.0 mi East 26.5 mph 35.7 mph N/A   Overcast
11:15 PM 50.0 °F - 44.6 °F 82% 30.45 in 10.0 mi East 26.5 mph 34.5 mph N/A   Overcast
11:35 PM 50.0 °F - 44.6 °F 82% 30.45 in 10.0 mi East 26.5 mph 36.8 mph N/A   Overcast
11:55 PM 50.0 °F - 44.6 °F 82% 30.45 in 10.0 mi East 25.3 mph 32.2 mph N/A   Overcast